CES778 ZUUU-ZBAA

Flight info

Callsign CES778
Flight time 1h 15m
Altitude 35100
Route GURET9W GURET W233 AGULU W81 APIMI W275 NSH G212 AMVOG W61 NUDKU W56 DUGEB DUGEB4A
Aircraft B738/M-SDE2E3FGHIRWXY/LB1

Departure

Time 2026-05-08 11:08
Airport Chengdu Shuangliu International Airport (ZUUU)

Arrival

Time 2026-05-08 12:24
Airport Beijing Capital International Airport (ZBAA)
Time Latitude Longitude Altitude Speed Heading
2026-05-08 10:47 30.57111 103.95130 1646 ft 0 kts 128°
2026-05-08 10:57 30.57123 103.95114 1646 ft 3 kts 129°
2026-05-08 10:58 30.57142 103.95096 1646 ft 4 kts 174°
2026-05-08 10:58 30.57167 103.95100 1646 ft 4 kts 189°
2026-05-08 10:58 30.57181 103.95101 1646 ft 0 kts 172°
2026-05-08 11:01 30.57174 103.95102 1646 ft 2 kts 172°
2026-05-08 11:01 30.57145 103.95100 1646 ft 6 kts 197°
2026-05-08 11:01 30.57136 103.95048 1646 ft 9 kts 291°
2026-05-08 11:01 30.57162 103.94972 1646 ft 11 kts 292°
2026-05-08 11:02 30.57184 103.94912 1646 ft 13 kts 293°
2026-05-08 11:02 30.57199 103.94704 1646 ft 13 kts 203°
2026-05-08 11:02 30.57139 103.94676 1646 ft 14 kts 202°
2026-05-08 11:03 30.57043 103.94631 1646 ft 16 kts 201°
2026-05-08 11:03 30.56935 103.94594 1646 ft 18 kts 195°
2026-05-08 11:03 30.56815 103.94543 1646 ft 19 kts 202°
2026-05-08 11:03 30.56689 103.94483 1646 ft 20 kts 202°
2026-05-08 11:04 30.56565 103.94424 1646 ft 19 kts 202°
2026-05-08 11:04 30.56445 103.94368 1646 ft 18 kts 202°
2026-05-08 11:04 30.56338 103.94318 1646 ft 14 kts 202°
2026-05-08 11:04 30.56272 103.94252 1646 ft 13 kts 264°
2026-05-08 11:05 30.56300 103.94157 1646 ft 10 kts 291°
2026-05-08 11:05 30.56318 103.94105 1646 ft 0 kts 294°
2026-05-08 11:06 30.56320 103.94099 1646 ft 2 kts 294°
2026-05-08 11:06 30.56328 103.94079 1646 ft 3 kts 294°
2026-05-08 11:06 30.56339 103.94048 1646 ft 5 kts 294°
2026-05-08 11:07 30.56368 103.94019 1646 ft 7 kts 358°
2026-05-08 11:07 30.56418 103.94039 1647 ft 9 kts 24°
2026-05-08 11:07 30.56621 103.94134 1648 ft 65 kts 22°
2026-05-08 11:07 30.57258 103.94432 1644 ft 130 kts 21°
2026-05-08 11:08 30.58271 103.94908 1665 ft 182 kts 19°
2026-05-08 11:08 30.59483 103.95477 2204 ft 194 kts 24°
2026-05-08 11:08 30.60777 103.96080 2908 ft 204 kts 23°
2026-05-08 11:08 30.62120 103.96699 3517 ft 214 kts 22°
2026-05-08 11:09 30.63584 103.97375 3697 ft 238 kts 23°
2026-05-08 11:09 30.65156 103.98105 4195 ft 246 kts 22°
2026-05-08 11:09 30.66805 103.98871 4589 ft 268 kts 23°
2026-05-08 11:09 30.68489 103.99856 5297 ft 272 kts 41°
2026-05-08 11:10 30.69632 104.01596 6179 ft 272 kts 60°
2026-05-08 11:10 30.70557 104.03537 6944 ft 277 kts 60°
2026-05-08 11:10 30.71487 104.05514 7714 ft 280 kts 60°
2026-05-08 11:10 30.72435 104.07512 8505 ft 283 kts 60°
2026-05-08 11:11 30.73388 104.09503 9255 ft 287 kts 59°
2026-05-08 11:11 30.74367 104.11543 10035 ft 291 kts 60°
2026-05-08 11:11 30.75371 104.13627 10495 ft 305 kts 58°
2026-05-08 11:11 30.76795 104.15547 10638 ft 326 kts 32°
2026-05-08 11:12 30.78914 104.16677 10835 ft 346 kts 19°
2026-05-08 11:12 30.81245 104.17612 11169 ft 359 kts 18°
2026-05-08 11:12 30.83639 104.18546 11693 ft 367 kts 18°
2026-05-08 11:12 30.86070 104.19506 12385 ft 369 kts 19°
2026-05-08 11:13 30.88506 104.20487 12971 ft 374 kts 19°
2026-05-08 11:13 30.90980 104.21498 13565 ft 378 kts 20°
2026-05-08 11:13 30.93458 104.22566 14126 ft 382 kts 25°
2026-05-08 11:13 30.95590 104.24405 14658 ft 387 kts 49°
2026-05-08 11:14 30.96928 104.27091 15154 ft 394 kts 69°
2026-05-08 11:14 30.97728 104.30164 15618 ft 399 kts 73°
2026-05-08 11:14 30.98480 104.33306 16056 ft 405 kts 73°
2026-05-08 11:14 30.99233 104.36489 16527 ft 409 kts 73°
2026-05-08 11:15 30.99996 104.39696 17052 ft 412 kts 73°
2026-05-08 11:15 31.00774 104.42929 17487 ft 417 kts 72°
2026-05-08 11:15 31.01571 104.46204 17906 ft 422 kts 72°
2026-05-08 11:15 31.02380 104.49508 18331 ft 427 kts 72°
2026-05-08 11:16 31.03202 104.52854 18712 ft 431 kts 72°
2026-05-08 11:16 31.04031 104.56221 19089 ft 434 kts 72°
2026-05-08 11:16 31.04866 104.59617 19497 ft 437 kts 72°
2026-05-08 11:16 31.05706 104.63033 19865 ft 441 kts 72°
2026-05-08 11:17 31.06553 104.66487 20221 ft 445 kts 72°
2026-05-08 11:17 31.07406 104.69969 20585 ft 448 kts 72°
2026-05-08 11:17 31.08265 104.73480 20947 ft 451 kts 72°
2026-05-08 11:17 31.09128 104.77012 21306 ft 455 kts 72°
2026-05-08 11:18 31.09997 104.80570 21656 ft 458 kts 72°
2026-05-08 11:18 31.10873 104.84167 21984 ft 462 kts 72°
2026-05-08 11:18 31.11753 104.87782 22320 ft 465 kts 72°
2026-05-08 11:18 31.12637 104.91422 22656 ft 468 kts 72°
2026-05-08 11:19 31.13528 104.95093 22959 ft 472 kts 72°
2026-05-08 11:19 31.14424 104.98790 23236 ft 476 kts 72°
2026-05-08 11:19 31.15327 105.02522 23554 ft 479 kts 72°
2026-05-08 11:19 31.16233 105.06271 23838 ft 481 kts 72°
2026-05-08 11:20 31.17143 105.10040 24102 ft 484 kts 72°
2026-05-08 11:20 31.18054 105.13825 24434 ft 484 kts 73°
2026-05-08 11:20 31.18963 105.17603 24778 ft 484 kts 73°
2026-05-08 11:20 31.19877 105.21404 25005 ft 487 kts 73°
2026-05-08 11:21 31.20795 105.25228 25226 ft 491 kts 73°
2026-05-08 11:21 31.21706 105.29029 25471 ft 493 kts 73°
2026-05-08 11:21 31.22647 105.32891 25708 ft 495 kts 70°
2026-05-08 11:21 31.23909 105.36632 25938 ft 495 kts 62°
2026-05-08 11:22 31.25642 105.40102 26159 ft 494 kts 53°
2026-05-08 11:22 31.27594 105.43419 26424 ft 495 kts 52°
2026-05-08 11:22 31.29564 105.46732 26685 ft 497 kts 52°
2026-05-08 11:22 31.31540 105.50072 26846 ft 501 kts 52°
2026-05-08 11:23 31.33501 105.53452 27077 ft 503 kts 53°
2026-05-08 11:23 31.35449 105.56862 27328 ft 505 kts 53°
2026-05-08 11:23 31.37401 105.60291 27531 ft 507 kts 53°
2026-05-08 11:23 31.39363 105.63729 27847 ft 507 kts 53°
2026-05-08 11:24 31.41321 105.67155 28145 ft 507 kts 53°
2026-05-08 11:24 31.43257 105.70556 28301 ft 510 kts 53°
2026-05-08 11:24 31.45228 105.74022 28529 ft 511 kts 53°
2026-05-08 11:24 31.47195 105.77487 28865 ft 510 kts 53°
2026-05-08 11:25 31.49155 105.80944 29229 ft 509 kts 53°
2026-05-08 11:25 31.51111 105.84397 29530 ft 509 kts 53°
2026-05-08 11:25 31.53069 105.87855 29796 ft 509 kts 53°
2026-05-08 11:25 31.55030 105.91317 30098 ft 509 kts 53°
2026-05-08 11:26 31.56990 105.94782 30373 ft 509 kts 53°
2026-05-08 11:26 31.58949 105.98246 30599 ft 510 kts 53°
2026-05-08 11:26 31.60909 106.01718 30874 ft 510 kts 53°
2026-05-08 11:26 31.62857 106.05174 31291 ft 506 kts 53°
2026-05-08 11:27 31.64798 106.08619 31530 ft 507 kts 53°
2026-05-08 11:27 31.66749 106.12082 31658 ft 510 kts 53°
2026-05-08 11:27 31.68713 106.15571 31843 ft 512 kts 53°
2026-05-08 11:27 31.70677 106.19065 32105 ft 513 kts 53°
2026-05-08 11:28 31.72639 106.22560 32390 ft 512 kts 53°
2026-05-08 11:28 31.74600 106.26057 32633 ft 513 kts 53°
2026-05-08 11:28 31.76561 106.29567 32829 ft 515 kts 53°
2026-05-08 11:28 31.78527 106.33083 33114 ft 514 kts 52°
2026-05-08 11:29 31.80499 106.36602 33319 ft 516 kts 52°
2026-05-08 11:29 31.82478 106.40136 33470 ft 518 kts 52°
2026-05-08 11:29 31.84452 106.43669 33796 ft 516 kts 53°
2026-05-08 11:29 31.86425 106.47184 34032 ft 515 kts 52°
2026-05-08 11:30 31.88398 106.50716 34166 ft 517 kts 52°
2026-05-08 11:30 31.90374 106.54268 34281 ft 519 kts 52°
2026-05-08 11:30 31.92352 106.57830 34460 ft 519 kts 52°
2026-05-08 11:30 31.94324 106.61386 34690 ft 519 kts 52°
2026-05-08 11:31 31.96297 106.64942 34870 ft 520 kts 52°
2026-05-08 11:31 31.98274 106.68508 35051 ft 520 kts 52°
2026-05-08 11:31 32.00254 106.72078 35163 ft 521 kts 52°
2026-05-08 11:32 32.04214 106.79232 35289 ft 520 kts 52°
2026-05-08 11:32 32.08114 106.86299 35264 ft 515 kts 52°
2026-05-08 11:33 32.12008 106.93360 35263 ft 511 kts 52°
2026-05-08 11:33 32.15877 107.00382 35263 ft 510 kts 52°
2026-05-08 11:34 32.19766 107.07454 35275 ft 517 kts 52°
2026-05-08 11:34 32.23695 107.14617 35283 ft 522 kts 52°
2026-05-08 11:35 32.27257 107.22083 35272 ft 523 kts 65°
2026-05-08 11:35 32.29700 107.30126 35281 ft 518 kts 68°
2026-05-08 11:36 32.32063 107.38121 35284 ft 518 kts 67°
2026-05-08 11:36 32.34496 107.46146 35269 ft 518 kts 66°
2026-05-08 11:37 32.36954 107.54157 35288 ft 518 kts 66°
2026-05-08 11:37 32.39975 107.64018 35277 ft 520 kts 67°
2026-05-08 11:38 32.44887 107.80171 35278 ft 522 kts 67°
2026-05-08 11:38 32.49811 107.96305 35273 ft 521 kts 62°
2026-05-08 11:38 32.54255 108.02691 35307 ft 495 kts 29°
2026-05-08 11:39 32.60326 108.05957 35288 ft 473 kts
2026-05-08 11:39 32.72989 108.10227 35278 ft 473 kts
2026-05-08 11:40 32.85605 108.14702 35233 ft 472 kts
2026-05-08 11:40 32.98182 108.19166 35273 ft 473 kts 10°
2026-05-08 11:41 33.10835 108.23692 35262 ft 475 kts 10°
2026-05-08 11:41 33.23540 108.28235 35246 ft 477 kts 10°
2026-05-08 11:42 33.36015 108.33457 35301 ft 484 kts 21°
2026-05-08 11:42 33.48022 108.40780 35278 ft 483 kts 21°
2026-05-08 11:43 33.60003 108.47945 35302 ft 480 kts 21°
2026-05-08 11:43 33.71962 108.55064 35285 ft 479 kts 21°
2026-05-08 11:44 33.83882 108.62208 35252 ft 478 kts 21°
2026-05-08 11:44 33.95789 108.69354 35244 ft 477 kts 21°
2026-05-08 11:45 34.07673 108.76520 35217 ft 477 kts 21°
2026-05-08 11:45 34.19451 108.83630 35184 ft 475 kts 20°
2026-05-08 11:45 34.25623 108.86033 35173 ft 459 kts
2026-05-08 11:46 34.31943 108.86973 35190 ft 457 kts
2026-05-08 11:46 34.44583 108.88977 35166 ft 458 kts
2026-05-08 11:47 34.57204 108.91070 35191 ft 458 kts
2026-05-08 11:47 34.69688 108.94991 35196 ft 467 kts 11°
2026-05-08 11:48 34.82106 108.99541 35205 ft 466 kts
2026-05-08 11:48 34.92390 109.03554 35206 ft 468 kts 11°
2026-05-08 11:49 35.06877 109.09326 35213 ft 469 kts 11°
2026-05-08 11:49 35.19213 109.14219 35197 ft 469 kts 11°
2026-05-08 11:50 35.29624 109.18362 35225 ft 470 kts 11°
2026-05-08 11:50 35.42065 109.23336 35203 ft 470 kts 11°
2026-05-08 11:51 35.54431 109.28292 35210 ft 470 kts 11°
2026-05-08 11:51 35.66855 109.33286 35224 ft 469 kts 11°
2026-05-08 11:52 35.78827 109.39911 35183 ft 492 kts 36°
2026-05-08 11:52 35.83237 109.46510 35213 ft 502 kts 50°
2026-05-08 11:52 35.87246 109.53574 35203 ft 504 kts 49°
2026-05-08 11:53 35.95389 109.67626 35194 ft 502 kts 48°
2026-05-08 11:53 36.03596 109.81621 35196 ft 502 kts 49°
2026-05-08 11:54 36.11761 109.95651 35176 ft 503 kts 48°
2026-05-08 11:54 36.19909 110.09726 35158 ft 503 kts 48°
2026-05-08 11:55 36.28052 110.23848 35152 ft 504 kts 48°
2026-05-08 11:55 36.36141 110.37959 35146 ft 504 kts 48°
2026-05-08 11:56 36.44264 110.52200 35175 ft 505 kts 48°
2026-05-08 11:56 36.52394 110.66489 35158 ft 506 kts 49°
2026-05-08 11:57 36.60478 110.80827 35166 ft 505 kts 48°
2026-05-08 11:57 36.68529 110.95040 35171 ft 506 kts 49°
2026-05-08 11:58 36.77302 111.08560 35200 ft 498 kts 40°
2026-05-08 11:58 36.86695 111.21407 35101 ft 505 kts 42°
2026-05-08 11:59 37.00729 111.40851 35157 ft 502 kts 41°
2026-05-08 11:59 37.10023 111.53897 35171 ft 501 kts 41°
2026-05-08 12:00 37.19303 111.66977 35171 ft 502 kts 41°
2026-05-08 12:00 37.27956 111.80851 35144 ft 518 kts 59°
2026-05-08 12:01 37.34348 111.97086 35149 ft 518 kts 57°
2026-05-08 12:01 37.40957 112.13189 35138 ft 519 kts 57°
2026-05-08 12:02 37.47523 112.29377 35133 ft 519 kts 57°
2026-05-08 12:02 37.54070 112.45596 35124 ft 519 kts 57°
2026-05-08 12:03 37.60553 112.61732 35140 ft 519 kts 57°
2026-05-08 12:03 37.68659 112.82004 35121 ft 518 kts 57°
2026-05-08 12:04 37.81607 113.14559 35115 ft 518 kts 58°
2026-05-08 12:04 37.94437 113.47154 35173 ft 516 kts 58°
2026-05-08 12:05 38.00805 113.63516 35023 ft 518 kts 58°
2026-05-08 12:05 38.07128 113.79926 35036 ft 517 kts 59°
2026-05-08 12:05 38.19607 114.12535 34927 ft 514 kts 59°
2026-05-08 12:06 38.32056 114.45166 35067 ft 509 kts 59°
2026-05-08 12:06 38.41677 114.78844 34935 ft 526 kts 100°
2026-05-08 12:07 38.39258 114.88949 35039 ft 522 kts 105°
2026-05-08 12:07 38.37513 114.97949 34756 ft 526 kts 103°
2026-05-08 12:07 38.35910 115.07067 33418 ft 528 kts 102°
2026-05-08 12:07 38.34264 115.16201 31986 ft 528 kts 103°
2026-05-08 12:08 38.32579 115.25293 30533 ft 526 kts 103°
2026-05-08 12:08 38.30887 115.34358 28840 ft 524 kts 102°
2026-05-08 12:08 38.29235 115.43302 27077 ft 511 kts 99°
2026-05-08 12:08 38.29867 115.51623 26290 ft 462 kts 64°
2026-05-08 12:09 38.33210 115.58280 25154 ft 437 kts 43°
2026-05-08 12:09 38.37961 115.62744 24037 ft 418 kts 22°
2026-05-08 12:09 38.43207 115.65894 22856 ft 418 kts 22°
2026-05-08 12:09 38.48453 115.69141 21605 ft 416 kts 23°
2026-05-08 12:10 38.53583 115.72388 20459 ft 406 kts 23°
2026-05-08 12:10 38.58589 115.75567 19376 ft 397 kts 23°
2026-05-08 12:10 38.63476 115.78669 18323 ft 389 kts 22°
2026-05-08 12:10 38.68056 115.82259 17374 ft 383 kts 36°
2026-05-08 12:11 38.72000 115.86594 16928 ft 365 kts 36°
2026-05-08 12:11 38.75851 115.90765 16535 ft 368 kts 36°
2026-05-08 12:11 38.79954 115.95174 16134 ft 398 kts 36°
2026-05-08 12:11 38.87542 116.03377 15180 ft 393 kts 36°
2026-05-08 12:12 38.95539 116.12053 14232 ft 364 kts 36°
2026-05-08 12:12 39.03643 116.19788 13389 ft 366 kts 11°
2026-05-08 12:12 39.13494 116.17838 12598 ft 367 kts 352°
2026-05-08 12:12 39.23671 116.16833 11603 ft 363 kts 352°
2026-05-08 12:13 39.31131 116.15803 10916 ft 333 kts 351°
2026-05-08 12:13 39.33381 116.15454 10775 ft 321 kts 350°
2026-05-08 12:13 39.35538 116.15117 10613 ft 311 kts 350°
2026-05-08 12:13 39.41979 116.14124 10014 ft 288 kts 350°
2026-05-08 12:14 39.49388 116.12994 9456 ft 259 kts 349°
2026-05-08 12:14 39.56400 116.11921 8755 ft 250 kts 349°
2026-05-08 12:14 39.63350 116.10853 8193 ft 253 kts 349°
2026-05-08 12:14 39.70447 116.09761 7584 ft 262 kts 349°
2026-05-08 12:15 39.77825 116.08626 6951 ft 272 kts 348°
2026-05-08 12:15 39.85118 116.10137 6176 ft 295 kts 47°
2026-05-08 12:15 39.87913 116.13874 5877 ft 297 kts 44°
2026-05-08 12:15 39.90827 116.17551 5458 ft 282 kts 44°
2026-05-08 12:16 39.93564 116.20941 5088 ft 261 kts 44°
2026-05-08 12:16 39.96080 116.24038 4835 ft 233 kts 45°
2026-05-08 12:16 39.98291 116.26760 4502 ft 207 kts 45°
2026-05-08 12:16 40.00281 116.29207 4365 ft 197 kts 45°
2026-05-08 12:17 40.02277 116.31665 4470 ft 189 kts 45°
2026-05-08 12:17 40.04145 116.33963 3679 ft 183 kts 46°
2026-05-08 12:17 40.05953 116.36192 2938 ft 177 kts 46°
2026-05-08 12:17 40.07738 116.38394 2465 ft 177 kts 47°
2026-05-08 12:18 40.09533 116.40609 2215 ft 174 kts 47°
2026-05-08 12:18 40.11311 116.42805 2337 ft 179 kts 47°
2026-05-08 12:18 40.13143 116.45069 2312 ft 182 kts 47°
2026-05-08 12:18 40.14975 116.47333 2329 ft 181 kts 48°
2026-05-08 12:19 40.16573 116.49779 2252 ft 170 kts 88°
2026-05-08 12:19 40.16695 116.51400 2259 ft 172 kts 92°
2026-05-08 12:19 40.16846 116.52946 2132 ft 169 kts 89°
2026-05-08 12:19 40.17001 116.54452 2020 ft 166 kts 90°
2026-05-08 12:20 40.17156 116.55966 1943 ft 169 kts 90°
2026-05-08 12:20 40.17313 116.57502 1808 ft 173 kts 90°
2026-05-08 12:20 40.17289 116.59019 1678 ft 159 kts 118°
2026-05-08 12:20 40.16659 116.60072 1500 ft 144 kts 156°
2026-05-08 12:21 40.15731 116.60321 1333 ft 134 kts 179°
2026-05-08 12:21 40.14799 116.60413 1180 ft 137 kts 176°
2026-05-08 12:21 40.13832 116.60546 1012 ft 141 kts 176°
2026-05-08 12:21 40.12841 116.60675 833 ft 146 kts 174°
2026-05-08 12:22 40.11818 116.60852 640 ft 150 kts 172°
2026-05-08 12:22 40.10787 116.61002 474 ft 152 kts 173°
2026-05-08 12:22 40.09730 116.61166 302 ft 153 kts 171°
2026-05-08 12:22 40.08703 116.61329 128 ft 139 kts 172°
2026-05-08 12:23 40.07828 116.61464 121 ft 110 kts 173°
2026-05-08 12:23 40.07184 116.61565 120 ft 76 kts 173°
2026-05-08 12:23 40.06707 116.61638 120 ft 64 kts 173°
2026-05-08 12:23 40.06294 116.61702 122 ft 56 kts 173°
2026-05-08 12:24 40.06087 116.61734 121 ft 23 kts 173°
2026-05-08 12:24 40.05961 116.61714 119 ft 17 kts 238°
2026-05-08 12:24 40.05945 116.61584 119 ft 9 kts 263°
2026-05-08 12:24 40.05937 116.61501 122 ft 9 kts 263°
2026-05-08 12:25 40.05930 116.61421 119 ft 9 kts 263°
2026-05-08 12:25 40.05923 116.61343 123 ft 9 kts 263°
2026-05-08 12:25 40.05921 116.61267 123 ft 8 kts 297°
2026-05-08 12:25 40.05974 116.61245 118 ft 8 kts 13°
2026-05-08 12:26 40.05998 116.61310 123 ft 8 kts 84°
2026-05-08 12:26 40.06001 116.61346 122 ft 0 kts 84°